Location: ?????
(37.7324°N, 23.9257°E)
Time: 06:53:35
(UTC+00:00)

Milstar 3 Cent rocket - Pass Details

Date: 29 November 2020
Orbit: 706 x 5147 km, 28.3° (Epoch: 17 January)

Event Time Altitude Azimuth Distance (km) Brightness Sun altitude
Exits shadow 04:00:21 13° 251° (WSW) 2,894 4.5 -15.3°
Maximum altitude 04:07:04 49° 180° (S) 2,171 4.4 -14.0°
Drops below altitude 10° 04:22:07 10° 112° (ESE) 6,094 8.2 -11.2°
Sets 04:28:40 0° 109° (ESE) 7,857 9.6 -10.0°
